GCOM-W1 (SHIZUKU) 1 38337U 12025A 21111.61564394 .00000091 00000-0 30285-4 0 9990 2 38337 98.2045 53.1345 0002404 85.5328 87.3762 14.57109724474880 ARIRANG-3 (KOMPSAT-3) 1 38338U 12025B 21111.85008004 .00000082 00000-0 26060-4 0 9994 2 38338 98.1827 52.3767 0009635 253.1275 106.8882 14.61664810476388 SDS-4 1 38339U 12025C 21111.72683854 .00000113 00000-0 27048-4 0 9995 2 38339 98.3030 164.6995 0008141 157.0458 203.1112 14.70635716479027 HORYU-2 1 38340U 12025D 21111.74400919 .00000321 00000-0 54389-4 0 9997 2 38340 98.2369 178.0346 0012586 132.9126 227.3141 14.76016222480432 H-2A R/B 1 38341U 12025E 21111.49397756 .00000213 00000-0 32549-4 0 9998 2 38341 98.5270 293.0847 0054608 323.5370 36.2128 14.84206268483054 H-2A DEB 1 38345U 12025F 21111.29396907 .00000872 00000-0 11270-3 0 9995 2 38345 98.2168 191.5002 0005836 12.0576 348.0775 14.83614662481727 H-2A DEB 1 38346U 12025G 21111.24349869 .00000817 00000-0 10905-3 0 9999 2 38346 98.2181 189.0046 0006190 23.0653 337.0836 14.82386643481332 H-2A DEB 1 38347U 12025H 21111.42220218 .00000334 00000-0 56522-4 0 9996 2 38347 98.2499 174.8951 0010594 81.6800 278.5609 14.75875321479948